PA3DZX-13 Weather Reports


time (UTC)temp
F
wind
direction
speed
knots
gust
knots
rain 1hr
in
rain 24hr
in
rain mn
in
humidity
%
barometer
mb
20220629042313 51 69 1.7 5.2 0.00 0.00 0.00 87 1015.9
20220629040813 51 53 1.7 3.5 0.00 0.00 0.00 88 1016.0
20220629035313 51 17 1.7 1.7 0.00 0.00 0.00 87 1016.2
20220629033813 53 345 0.0 1.7 0.00 0.00 0.00 82 1016.4
20220629032313 53 42 0.0 3.5 0.00 0.00 0.00 82 1016.4
20220629030813 59 90 1.7 5.2 0.00 0.00 0.00 68 1016.4
20220629025313 59 90 1.7 5.2 0.00 0.00 0.00 68 1016.4
20220629023813 59 81 3.5 7.0 0.00 0.00 0.00 67 1016.7
20220629022313 59 86 3.5 7.0 0.00 0.00 0.00 67 1016.8
20220629020813 59 84 3.5 7.0 0.00 0.00 0.00 66 1017.0
20220629015313 60 85 3.5 7.0 0.00 0.00 0.00 65 1017.1
20220629013812 60 83 5.2 9.6 0.00 0.00 0.00 65 1017.2
20220629012312 60 84 5.2 9.6 0.00 0.00 0.00 65 1017.3
20220629010812 60 84 5.2 9.6 0.00 0.00 0.00 65 1017.3
20220629005312 60 76 5.2 9.6 0.00 0.00 0.00 64 1017.3
20220629003812 60 77 5.2 9.6 0.00 0.00 0.00 63 1017.4
20220629002312 60 76 5.2 9.6 0.00 0.00 0.00 63 1017.6
20220629000811 60 74 5.2 9.6 0.00 0.00 0.00 64 1017.6
20220628235311 62 69 5.2 9.6 0.00 0.00 0.00 63 1017.9
20220628233810 62 69 5.2 9.6 0.00 0.00 0.00 63 1017.9
20220628232310 60 63 5.2 9.6 0.00 0.00 0.00 66 1018.0
20220628230810 60 67 5.2 7.0 0.00 0.00 0.00 65 1018.2
20220628225311 60 65 5.2 7.0 0.00 0.00 0.00 65 1018.3
20220628223810 62 67 5.2 7.0 0.00 0.00 0.00 61 1018.4
20220628222310 62 62 5.2 9.6 0.00 0.00 0.00 63 1018.4
20220628220809 60 63 5.2 9.6 0.00 0.00 0.00 65 1018.4
20220628215309 60 62 5.2 5.2 0.00 0.00 0.00 68 1018.4
20220628213809 57 59 3.5 3.5 0.00 0.00 0.00 79 1018.4
20220628212310 57 57 1.7 3.5 0.00 0.00 0.00 82 1018.4
20220628210808 60 51 1.7 3.5 0.00 0.00 0.00 71 1018.5
20220628205309 60 50 1.7 3.5 0.00 0.00 0.00 75 1018.6
20220628203808 60 50 3.5 3.5 0.00 0.00 0.00 72 1018.5
20220628202308 66 41 1.7 3.5 0.00 0.00 0.00 58 1018.6
20220628200808 64 25 1.7 1.7 0.00 0.00 0.00 66 1018.5
20220628195307 66 42 1.7 3.5 0.00 0.00 0.00 59 1018.6
20220628193807 68 47 1.7 3.5 0.00 0.00 0.00 59 1018.6
20220628192307 69 12 3.5 3.5 0.00 0.00 0.00 49 1018.6
20220628190807 71 26 1.7 3.5 0.00 0.00 0.00 47 1018.8
20220628185307 71 353 1.7 1.7 0.00 0.00 0.00 43 1018.8
20220628183806 73 305 0.0 3.5 0.00 0.00 0.00 40 1018.7
20220628182306 71 287 1.7 3.5 0.00 0.00 0.00 42 1018.7
20220628180804 71 295 1.7 3.5 0.00 0.00 0.00 41 1018.7
20220628175304 73 313 1.7 3.5 0.00 0.00 0.00 39 1018.9
20220628173804 73 316 1.7 3.5 0.00 0.00 0.00 39 1018.9
20220628172304 73 313 1.7 3.5 0.00 0.00 0.00 39 1019.1
20220628170803 73 313 1.7 3.5 0.00 0.00 0.00 39 1019.1
20220628165303 73 243 3.5 7.0 0.00 0.00 0.00 42 1019.1
20220628163802 73 248 5.2 7.0 0.00 0.00 0.00 41 1019.1
20220628162302 73 98 1.7 3.5 0.00 0.00 0.00 39 1019.3
20220628160802 73 155 1.7 7.0 0.00 0.00 0.00 41 1019.4
20220628155301 73 267 3.5 7.0 0.00 0.00 0.00 41 1019.7
20220628153801 73 231 3.5 9.6 0.00 0.00 0.00 40 1019.8
20220628152301 73 221 1.7 9.6 0.00 0.00 0.00 41 1019.9
20220628150801 71 255 3.5 9.6 0.00 0.00 0.00 43 1020.0
20220628145301 73 264 5.2 9.6 0.00 0.00 0.00 43 1020.0
20220628143801 73 215 5.2 9.6 0.00 0.00 0.00 42 1020.1
20220628142301 73 259 5.2 17.4 0.00 0.00 0.00 45 1020.6
20220628140800 73 259 5.2 17.4 0.00 0.00 0.00 45 1020.6
20220628135300 73 259 5.2 17.4 0.00 0.00 0.00 45 1020.6
20220628133800 71 239 7.0 17.4 0.00 0.00 0.00 44 1020.7
20220628132300 71 250 5.2 13.0 0.00 0.00 0.00 44 1021.0
20220628130800 71 250 5.2 13.0 0.00 0.00 0.00 44 1021.0
20220628125300 71 247 7.0 13.0 0.00 0.00 0.00 41 1021.0
20220628123800 71 247 7.0 13.0 0.00 0.00 0.00 41 1021.0
20220628122259 69 241 5.2 9.6 0.00 0.00 0.00 44 1021.0
20220628120759 71 240 5.2 13.0 0.00 0.00 0.00 46 1021.1
20220628115259 71 240 5.2 13.0 0.00 0.00 0.00 46 1021.1
20220628113800 69 232 7.0 13.0 0.00 0.00 0.00 44 1021.2
20220628112259 69 210 7.0 13.0 0.00 0.00 0.00 46 1021.4
20220628110759 68 213 7.0 11.3 0.00 0.00 0.00 45 1021.4
20220628105259 68 263 7.0 14.8 0.00 0.00 0.00 46 1021.4
20220628103759 68 249 5.2 11.3 0.00 0.00 0.00 48 1021.6
20220628102259 68 244 5.2 11.3 0.00 0.00 0.00 50 1021.6
20220628100758 66 240 5.2 11.3 0.00 0.00 0.00 45 1021.7
20220628095259 68 236 5.2 14.8 0.00 0.00 0.00 51 1021.8
20220628093758 66 212 5.2 14.8 0.00 0.00 0.00 53 1021.9
20220628092258 66 202 5.2 11.3 0.00 0.00 0.00 56 1022.1
20220628090758 66 202 5.2 11.3 0.00 0.00 0.00 56 1022.1
20220628085258 64 195 5.2 9.6 0.00 0.00 0.00 61 1022.2
20220628083758 64 204 5.2 9.6 0.00 0.00 0.00 60 1022.2
20220628082258 62 184 5.2 9.6 0.00 0.00 0.00 72 1022.4
20220628080758 62 184 5.2 9.6 0.00 0.00 0.00 72 1022.4
20220628075258 62 210 3.5 7.0 0.00 0.00 0.00 75 1022.4
20220628073757 62 207 3.5 5.2 0.00 0.00 0.00 77 1022.4
20220628072257 60 183 1.7 5.2 0.00 0.00 0.00 79 1022.3
20220628070757 60 183 1.7 5.2 0.00 0.00 0.00 79 1022.3
20220628065257 59 190 1.7 3.5 0.00 0.00 0.00 81 1022.2
20220628063757 59 168 3.5 3.5 0.00 0.00 0.00 86 1022.1
20220628062257 57 182 1.7 3.5 0.00 0.00 0.00 88 1022.0
20220628060757 57 197 1.7 5.2 0.00 0.00 0.00 90 1022.0
20220628055257 55 188 3.5 5.2 0.00 0.00 0.00 93 1022.0
20220628053757 55 179 3.5 5.2 0.00 0.00 0.00 96 1021.9
20220628052257 53 165 3.5 5.2 0.00 0.00 0.00 96 1021.9
20220628050757 53 158 1.7 3.5 0.00 0.00 0.00 96 1022.0
20220628045257 51 159 1.7 3.5 0.00 0.00 0.00 99 1021.9
20220628043757 50 162 3.5 3.5 0.00 0.00 0.00 98 1021.8